PEGASUS R/B(2)

Satellite information

Favourite Embed

Satellite Type and Status

ROCKET BODYIN ORBIT

Key statistics

Satellite PEGASUS R/B(2) at a glance.

Uptime

9897

Days in orbit

Revolutions

≈ 14.4

Per day

Orbit

LEO

Low Earth Orbit

Inclination

44.5

Latest

Satellite identification and parameters

Extended collection of information and parameters for PEGASUS R/B(2).

Object identification

Identified? True

Debris? False

Object name: PEGASUS R/B(2)

International designator: 1998-053K

Object number (NORAD): 25484

Object ID (CCSDS): 25484

Country: UNITED STATES OF AMERICA (US)

Current information (Y/N): Y

RCS size: MEDIUM

Orbital parameters

Period: 99.769 minutes

Inclination: 44.5299 deg

SMA: 7125.634 km

Apoapsis: 792.843 km

Periapsis: 702.155 km

RAAN: 235.2078 deg

Eccentricy: 0.0063635

Argument of periapsis: 357.3549 deg

Mean anomaly: 51.8476 deg

Mean motion: 14.43336172 rev/day

Mean motion (dot): 0.00000569 rev/day2

B* drag term: 0.00020461503 1/REarth

Two-line elements (TLE)

Creation date: Oct. 27, 2025, 2:46 a.m.

Reference frame: TEME

Reference center: EARTH

Epoch: Oct. 26, 2025, 9:57 p.m. UTC

TLE line 0: 0 PEGASUS R/B(2)

TLE line 1: 1 25484U 98053K 25299.91523169 .00000569 00000-0 20462-3 0 9998

TLE line 2: 2 25484 44.5299 235.2078 0063635 357.3549 51.8476 14.43336172426876

Live tracking on map

Real-time ground track for satellite PEGASUS R/B(2).

In-orbit conjunctions

A list of the most updated potential collisions computed for object PEGASUS R/B(2).

Target Orbit TCA Probability of collision Miss distance Type
FENGYUN 1C DEB SSO 2025-01-13 11:37:45 0.0005636873 129.0 (m) DEBRIS

Associated space launch

PEGASUS R/B(2) was lifted into orbit during the mission ‘Pegasus XL HAPS | Orbcomm-C1 - C8’, on board a Pegasus XL HAPS space rocket.

The launch took place on Sept. 23, 1998, 5:06 a.m. from Wallops Flight Facility.

For more information about the launch, click the button.

Launch to space Pegasus XL HAPS | Orbcomm-C1 - C8
Pegasus XL HAPS | Orbcomm-C1 - C8

Agency: N/A

Status: Launch Successful

Launch date: Sept. 23, 1998, 5:06 a.m. UTC

Rocket: Pegasus XL HAPS

Launch pad: Wallops Flight Facility

Location: Air launch to orbit

...

Latest news about this satellite

There are no fresh news available about this satellite. Check back as we update our databases every day.


Newsletter sign-up

Weekly statistics, charts and insights to help you stay on top of the space industry.